Terug naar catalogus

DELTA 1 DEB

ActiefSSO
NORAD 8978·DEBRIS·🇺🇸 United States

Gelanceerd Jan 22, 1975 vanaf Vandenberg Space Force Base

Loading…

Volgende Passages (komende 24 uur)

TLE

VersSource: Space-Track

Epoch: Sep 14, 2026, 04:52 UTC

1 08978U 75004BL  26257.20290966  .00001381  00000-0  15474-3 0  9991
2 08978  97.7840 327.0048 0024514 283.9039  75.9451 14.88252475680565

Volg DELTA 1 DEB in realtime met AllMySat

Download on the App Store